SCP
0 0 0 0 0 0 0 0 0 0 0 0 0 0 0 0 0 0 0 0 0 0 0 0 0 0 0 0 0 0 0 0 0 0 0 0 0 0 0 0 0 0 0 0
0 0 0 0 0 0 0 0 0 0 0 0 0 0 0 0 0 0 0 0 0 0 0 0 0 0 0 0 0 0 0 0 0 0 0 0 0 0 0 0 0 0 0 0
0 0 0 0 0 0 0 0 0 0 0 0 0 0 0 0 0 0 0 0 0 0 0 0 0 0 0 0 0 0 0 0 0 0 0 0 0 0 0 0 0 0 0 0
0 0 0 0 0 0 0 0 0 0 0 0 0 0 0 0 0 0 0 0 0 0 0 0 0 0 0 0 0 0 0 0 0 0 0 0 0 0 0 0 0 0 0 0
0 0 0 0 0 0 0 0 0 0 0 0 0 0 0 0 0 0 0 0 0 0 0 0 0 0 0 0 0 0 0 0 0 0 0 0 0 0 0 0 0 0 0 0
0 0 0 0 0 0 0 0 0 0 0 0 0 0 0 0 0 0 0 0 0 0 0 0 0 0 0 0 0 0 0 0 0 0 0 0 0 0 0 0 0 0 0 0
0 0 0 0 0 0 0 0 0 0 0 0 0 0 0 0 0 0 0 0 0 0 0 0 0 0 0 0 0 0 0 0 0 0 0 0 0 0 0 0 0 0 0 0
0 0 0 0 0 0 0 0 0 0 0 0 0 0 0 0 0 0 0 0 0 0 0 0 0 0 0 0 0 0 0 0 0 0 0 0 0 0 0 0 0 0 -0 -0
0 0 -0 -0 -0 -0 0 0 0 0 0 0 0 0 0 0 0 0 0 0 0 0 0 0 0 0 -0 0 0 0 0 0 0 0 0 0 0 0 0 0 0 -0 -0 -0
0 0 0 -0 -0 -0 0 0 0 0 0 0 0 0 0 0 0 0 0 0 0 0 0 0 0 0 -0 -0 0 0 0 0 0 0 0 0 -0 0 0 0 0 -0 -0 -0
0 0 0 -0 0 0 0 0 0 0 0 0 0 0 0 0 0 0 0 0 0 0 0 0 0 0 0 0 -0 0 0 0 0 0 0 -0 -0 0 0 0 0 -0 0 0
0 0 0 0 0 0 0 0 0 0 0 0 0 0 0 0 0 0 0 0 0 0 0 0 0 0 0 0 0 0 0 0 0 0 0 0 0 0 0 0 0 0 0 0
0 0 0 0 0 0 0 0 0 0 0 0 0 0 0 0 0 0 0 0 0 0 0 0 0 0 0 0 0 0 0 0 0 0 0 0 0 0 0 0 0 0 0 0
0 0 0 0 0 0 0 0 0 0 0 0 0 0 0 0 0 0 0 0 0 0 0 0 0 0 0 0 0 0 0 0 0 0 0 0 0 0 0 0 0 0 0 0
0 0 0 0 0 0 0 0 0 0 0 0 0 0 0 0 0 0 0 0 0 0 0 0 0 0 0 0 0 0 0 -0 0 0 0 0 0 0 0 0 0 0 0 0
0 0 0 0 0 0 0 0 0 0 0 0 0 0 0 0 0 0 0 0 0 0 0 0 0 0 0 0 0 0 -0 -0 0 0 0 0 0 0 0 0 0 0 0 0
0 0 0 0 0 0 0 0 0 0 0 0 0 0 0 0 0 0 0 0 0 0 0 0 0 0 0 0 0 -0 -0 0 0 0 0 0 0 0 0 0 0 0 0 0
0 0 0 0 0 0 0 0 0 0 0 0 0 0 0 -0 -0 0 0 0 0 0 0 0 0 0 0 0 0 -0 -0 0 0 0 0 0 0 0 0 0 0 0 0 0
0 0 0 0 0 0 0 0 0 0 0 0 0 -0 -0 -0 -0 0 0 0 0 0 0 0 0 0 0 0 0 0 -0 0 0 0 0 0 0 0 0 0 0 0 0 0
0 0 0 0 0 0 0 0 0 0 0 0 0 0 0 0 0 0 0 0 0 -0 -0 -0 -0 -0 0 0 0 0 -0 -0 -0 0 0 0 0 0 0 0 0 0 0 0
0 0 0 0 0 0 0 0 0 0 0 0 0 0 0 0 0 0 0 0 0 -0 -0 -0 -0 -0 -0 -0 0 0 0 0 0 0 0 0 0 0 0 0 0 0 0 0
0 0 0 0 0 0 0 0 0 0 0 0 0 0 0 0 0 0 0 0 0 -0 -0 0 -0 -0 -0 0 0 0 0 0 0 0 0 0 0 0 0 0 0 0 0 0
0 0 0 0 0 0 0 0 0 0 0 0 0 0 0 0 0 0 0 0 0 0 -0 -0 -0 0 0 0 0 0 0 0 0 0 0 0 0 0 0 0 0 0 0 0
0 0 0 0 0 0 0 0 0 0 0 0 0 0 0 0 0 0 0 0 0 0 -0 -0 -0 0 0 0 0 0 0 0 0 0 0 0 0 0 0 0 0 0 0 0
-0 -0 -0 0 0 0 0 0 0 0 0 0 0 0 0 0 0 0 0 0 0 0 0 0 0 0 0 0 0 0 0 0 0 0 0 0 0 0 0 0 0 0 0 0
-0 -0 0 0 0 0 0 0 0 0 0 0 0 0 0 0 0 0 0 0 0 0 0 0 0 0 0 0 0 0 0 0 0 0 0 0 0 0 0 0 0 0 0 0
-0 -0 0 0 0 0 0 0 0 0 0 0 0 0 0 0 0 0 0 0 0 0 0 0 0 0 0 0 0 0 0 0 0 0 0 0 0 0 0 0 0 0 0 0
Wind_Speed
2 2 2 2 2 4 4 6 7 6 6 6 8 9 10 10 11 10 10 9 8 6 4 4 3 3 3 3 3 4 5 5 5 4 4 5 6 5 6 6 7 6 7 7
2 1 1 1 1 2 2 2 3 2 4 1 6 7 9 11 11 11 10 9 8 7 6 5 4 3 3 3 3 4 4 4 4 4 5 5 5 5 6 6 6 7 7 7
1 2 2 2 3 2 2 2 4 5 4 6 6 9 10 11 10 10 9 9 8 7 6 5 4 4 3 2 3 4 4 4 4 5 5 5 5 6 6 5 6 7 6 6
1 2 2 5 2 2 2 1 1 1 3 6 6 5 5 6 8 9 9 9 8 7 6 5 5 4 4 4 4 4 4 4 4 5 5 5 6 6 5 4 5 5 5 6
3 1 4 4 1 1 2 2 1 5 7 7 9 7 4 4 6 7 8 8 7 7 7 6 5 5 5 4 4 4 4 4 4 4 4 5 5 5 4 4 5 5 4 6
3 2 3 5 2 1 2 3 2 6 10 9 7 4 3 5 8 9 9 8 8 7 7 6 5 5 5 4 3 3 3 3 4 4 4 4 4 4 4 4 4 5 6 6
3 2 6 4 2 1 1 5 3 7 9 8 4 4 6 9 9 9 9 9 9 8 7 6 5 5 5 4 3 2 3 4 4 4 4 4 4 3 4 5 5 5 5 5
4 2 6 3 1 3 4 1 4 6 7 8 8 9 9 10 10 10 10 9 8 8 6 5 5 6 5 3 2 3 4 4 4 4 3 4 4 4 4 4 4 4 4 4
5 5 3 2 1 1 2 4 4 6 8 11 11 10 10 9 10 9 9 8 7 8 7 5 4 5 5 3 3 4 4 4 3 4 3 3 3 3 3 3 3 2 3 3
1 3 1 1 1 2 3 4 5 8 10 11 11 11 11 10 9 9 8 8 7 8 7 5 3 3 3 3 4 5 4 3 3 3 3 3 2 2 2 2 2 2 1 1
2 2 1 2 2 4 7 9 10 9 8 11 13 12 10 9 9 8 7 6 6 7 7 5 4 3 3 4 4 4 3 3 2 2 2 2 3 2 1 0 2 2 2 1
5 5 4 2 3 5 8 8 10 11 9 8 10 12 10 9 8 8 7 6 7 6 6 5 4 4 3 3 4 5 3 2 2 2 2 2 2 2 4 1 1 2 3 3
3 3 3 5 5 5 7 8 8 10 11 11 9 10 11 9 7 7 7 7 7 6 6 5 4 3 3 3 4 4 3 2 2 2 1 1 1 1 2 3 4 3 1 1
5 6 4 4 5 6 8 10 10 10 9 10 9 10 10 9 8 8 7 7 6 6 5 5 4 3 2 3 4 4 3 2 2 1 1 1 1 1 1 1 1 2 3 1
1 3 6 8 9 9 10 11 12 10 10 9 9 10 10 10 8 7 6 6 6 6 5 4 4 2 2 4 4 3 2 1 1 1 1 1 1 1 0 0 0 1 1 2
5 8 10 11 11 11 11 11 12 11 10 9 9 9 9 8 8 7 6 7 7 6 5 4 3 2 3 3 3 2 1 2 2 1 1 1 1 1 1 1 1 1 2 2
9 8 9 10 11 11 10 10 11 11 10 10 10 9 9 8 7 6 6 5 6 5 5 5 4 3 3 3 3 2 2 1 1 1 1 1 2 2 2 2 2 2 3 3
7 9 10 13 12 11 10 10 10 10 10 10 10 10 10 9 9 7 6 5 5 3 3 4 4 4 3 3 3 2 2 1 1 1 1 2 2 2 2 2 3 3 3 2
6 8 9 10 11 11 11 10 10 9 9 10 11 10 9 8 8 7 6 6 6 5 4 4 5 4 3 3 3 2 2 1 1 1 1 2 2 2 2 2 3 3 3 3
7 8 9 9 10 10 10 10 10 9 9 10 10 9 8 8 8 8 7 6 6 5 5 5 4 4 3 3 3 2 2 2 2 2 2 2 2 2 2 3 3 3 3 4
9 10 10 10 10 10 11 11 11 10 9 10 11 10 9 8 8 8 7 5 5 5 5 6 4 4 3 3 4 3 2 3 3 3 2 2 3 3 3 4 4 4 4 4
8 10 10 10 11 10 9 10 10 11 10 9 9 9 9 8 8 7 6 6 5 7 5 4 4 5 5 4 3 3 3 3 3 3 3 3 3 4 4 4 4 4 5 4
7 8 10 11 12 11 10 10 11 11 11 11 11 10 10 8 7 7 6 5 5 8 6 5 6 8 7 4 3 3 3 4 4 4 4 4 4 4 4 5 4 4 4 4
6 8 8 8 9 10 11 10 10 9 10 10 9 10 9 7 6 6 5 7 9 9 6 7 9 9 7 4 3 4 4 4 4 4 4 4 4 4 4 4 5 5 5 6
7 7 8 10 11 10 10 10 9 8 9 7 7 8 8 7 7 7 6 7 10 10 6 8 10 10 6 5 5 5 5 5 5 4 4 4 4 4 5 5 5 5 5 5
6 7 8 10 9 8 8 8 8 8 8 7 6 6 6 5 6 6 6 7 9 9 7 6 6 7 6 6 6 6 6 5 6 5 5 5 6 6 5 6 7 6 6 6
5 5 5 5 5 7 8 8 9 9 9 9 8 7 7 7 6 7 7 7 7 7 7 6 6 6 7 7 7 6 6 6 6 6 6 6 6 6 6 8 6 6 6 6
Wind_Direction
221 229 185 208 215 180 188 190 193 235 226 227 189 173 161 152 150 151 152 154 154 151 143 127 108 87 72 57 49 54 58 53 44 38 44 52 50 47 48 51 54 53 55 51
357 359 146 201 252 175 202 194 208 231 257 198 134 134 144 154 160 162 163 161 157 152 147 141 131 114 92 74 61 63 62 52 46 50 52 52 53 54 54 51 51 52 52 53
309 321 44 299 262 205 200 200 185 214 221 140 142 158 164 165 167 166 159 156 157 155 152 145 135 121 111 96 76 69 65 59 56 57 54 51 57 59 57 52 55 56 52 54
86 40 250 255 284 186 165 220 182 157 134 145 138 127 127 147 156 156 154 154 153 148 142 135 126 119 109 90 81 73 64 59 58 63 60 54 57 56 52 53 58 56 51 50
110 113 292 297 287 152 158 285 151 137 124 113 112 93 83 120 135 145 146 142 139 138 135 131 128 123 112 97 85 75 67 59 58 69 67 59 57 52 51 59 57 52 52 50
113 132 252 263 295 166 98 297 180 147 145 143 131 132 176 140 126 121 121 124 126 125 122 124 124 120 112 106 93 86 79 70 64 74 77 68 62 58 57 64 62 59 55 47
148 205 264 275 291 118 164 257 169 148 148 147 142 149 134 125 120 121 121 123 124 124 125 129 130 122 115 111 106 104 96 81 70 69 77 75 68 63 69 71 66 58 54 45
146 185 259 322 44 172 216 116 121 132 132 121 113 111 114 119 122 123 122 123 124 123 120 123 128 124 117 115 111 100 94 84 73 66 72 81 80 70 69 75 70 56 51 41
182 208 248 317 264 310 137 129 132 132 128 126 124 125 123 122 124 125 127 125 123 123 120 116 121 124 126 130 118 107 94 85 77 71 65 74 87 87 77 76 79 67 62 49
267 283 320 6 42 53 88 115 121 126 129 129 128 130 126 125 125 126 124 124 124 124 124 123 126 125 134 130 119 110 102 96 87 78 61 45 56 78 97 104 102 95 89 63
261 266 30 29 63 101 95 102 107 110 118 129 130 131 129 129 130 128 123 120 125 130 133 136 133 126 126 122 118 111 106 104 93 79 81 56 46 42 70 162 200 170 174 171
221 209 174 191 145 125 119 122 126 121 115 121 130 132 128 128 129 128 127 123 124 126 129 132 128 122 118 124 128 124 116 107 103 98 84 79 72 46 38 46 55 166 184 181
191 140 127 129 124 118 121 125 126 125 129 127 124 128 127 125 126 127 127 128 134 137 137 134 129 128 130 128 126 126 128 128 119 117 114 104 90 82 37 16 34 53 78 185
142 121 116 138 140 126 122 121 113 110 116 123 125 125 123 121 127 131 137 141 137 134 134 136 136 144 151 133 128 130 132 140 138 146 150 150 148 135 121 82 6 352 355 347
128 134 142 131 123 122 125 124 121 122 123 121 125 130 132 134 139 141 139 134 129 131 138 139 142 157 157 142 139 144 143 146 148 155 162 170 171 161 180 193 242 299 323 331
103 103 120 130 136 139 139 139 139 142 140 136 137 140 142 140 137 135 136 139 139 149 156 151 159 174 153 143 143 147 169 193 176 167 177 182 192 200 217 234 255 262 267 266
131 140 145 148 151 154 157 156 153 151 148 147 149 145 139 135 133 139 148 154 154 159 163 164 178 172 150 149 148 155 166 193 189 170 206 215 216 227 233 236 246 253 258 245
171 168 166 161 159 157 155 152 151 151 154 154 147 144 147 151 157 161 159 148 141 149 175 181 176 161 155 158 156 157 161 168 181 214 228 228 231 233 236 243 251 256 268 264
156 153 155 158 158 156 155 154 155 154 152 150 151 156 159 161 161 158 152 150 158 177 202 194 177 163 166 176 161 160 174 190 215 252 254 254 254 243 238 245 250 251 256 258
158 155 153 153 153 153 155 153 149 151 156 155 152 153 158 163 161 157 159 172 190 193 187 179 173 174 183 190 176 175 190 206 224 247 257 253 255 257 252 251 254 256 254 252
162 161 159 160 158 159 158 155 155 160 161 161 162 167 170 168 164 160 163 188 211 191 180 181 181 187 189 189 186 189 203 219 229 237 247 253 255 258 259 259 261 260 256 255
166 167 166 163 160 161 161 159 160 161 162 165 168 166 164 167 171 174 188 196 192 181 178 186 192 199 198 194 194 206 222 234 238 238 241 245 247 253 258 259 259 260 257 255
169 170 168 168 168 164 159 162 166 167 170 173 174 175 177 179 177 179 199 206 185 185 186 197 202 205 204 199 206 222 234 239 242 243 244 243 242 245 253 260 260 260 259 257
168 170 170 162 152 154 166 174 171 173 175 176 179 179 176 175 188 201 193 183 187 189 197 207 208 211 206 203 214 226 236 241 245 247 248 247 244 244 248 253 259 261 258 257
169 163 157 156 164 175 176 168 164 167 170 176 181 183 183 183 187 194 188 190 193 192 204 213 214 215 210 211 219 227 234 239 243 244 246 249 252 252 252 252 253 257 257 255
170 172 173 178 178 172 166 167 172 176 176 181 187 187 187 187 186 180 184 194 195 197 204 210 210 211 212 216 223 228 233 241 246 245 244 247 252 254 256 256 256 253 253 253
164 160 155 157 164 165 168 173 178 182 183 185 189 189 187 187 187 189 191 195 197 201 208 211 210 210 213 219 225 230 233 235 239 243 245 246 248 249 252 252 253 253 253 253